Theta_e
276 278 279 278 279 280 280 281 278 282 287 291 292 293 296 297 298 298 298 298 299 299 302 306 311 313 314 314 314 315 314 314 313 314 315 314 313 313 311 312 311 310 308 307
274 279 280 278 280 280 281 282 284 285 289 294 297 296 295 296 295 294 295 296 297 298 300 304 306 310 314 314 313 313 311 310 310 310 310 309 310 311 310 310 310 307 306 307
271 276 276 273 280 282 283 284 283 279 289 292 291 292 291 290 291 291 292 293 293 293 294 299 303 304 308 311 312 311 309 309 307 307 307 307 307 308 306 306 305 305 304 304
272 274 258 277 284 285 282 284 285 286 287 288 291 291 291 291 290 290 291 291 292 292 292 293 301 304 308 312 311 310 308 307 307 306 305 305 305 305 305 305 303 303 304 304
268 270 274 277 281 282 281 280 285 285 287 287 289 290 288 291 291 290 290 291 291 291 291 291 294 301 301 302 305 309 309 308 305 303 303 303 302 303 304 304 304 304 304 303
272 268 264 276 283 286 285 274 287 286 286 286 287 282 284 291 292 292 292 291 291 292 291 291 291 297 296 296 297 298 304 307 305 303 301 301 301 301 302 303 303 303 303 303
272 268 273 279 285 286 273 276 288 289 288 287 286 288 291 292 291 292 293 292 291 292 290 290 291 292 291 292 292 296 300 306 307 304 301 299 300 300 301 301 301 301 302 302
272 269 266 282 281 277 282 286 289 289 288 287 287 289 290 291 291 292 292 292 292 289 289 291 292 291 290 290 292 294 296 301 304 304 303 301 299 300 299 299 299 299 299 300
273 272 280 283 282 281 283 281 284 288 289 289 287 286 288 288 289 289 291 291 291 289 289 290 290 291 290 291 293 293 293 293 299 303 303 300 296 298 298 298 298 298 298 298
273 276 278 281 283 284 284 283 285 287 286 287 286 287 287 287 288 288 289 290 291 290 288 288 289 291 291 292 292 292 292 292 293 298 301 301 298 296 294 296 296 296 296 297
273 276 278 280 281 282 283 284 284 285 286 286 287 286 287 286 286 287 287 288 289 288 289 289 290 290 290 291 292 290 290 291 291 296 296 296 297 296 295 295 297 293 293 295
271 276 276 276 280 283 282 282 283 283 283 285 287 286 287 286 285 286 286 288 288 288 289 289 289 289 290 291 292 290 289 289 289 290 290 293 294 293 292 293 291 292 292 294
276 280 279 279 280 282 281 282 283 283 284 284 286 287 287 286 285 286 286 286 287 288 288 289 289 289 291 292 293 291 287 288 289 288 289 288 290 291 288 291 289 291 291 290
281 280 276 279 277 281 282 283 284 283 285 285 286 287 287 286 286 285 285 286 287 288 288 289 289 290 292 292 292 289 288 286 286 286 287 288 288 288 290 287 287 288 288 289
280 281 280 280 281 281 282 283 282 282 283 283 285 285 286 285 284 284 286 287 287 287 288 289 289 289 292 292 290 289 288 287 287 287 288 287 288 288 287 286 286 287 287 285
280 281 281 280 279 280 280 280 280 280 282 283 283 283 284 284 284 284 285 287 286 286 288 288 288 289 291 291 289 288 288 285 285 287 286 286 286 286 287 286 285 285 285 286
275 275 277 276 277 278 279 281 281 281 281 282 283 284 284 284 284 284 285 286 287 287 288 288 288 290 290 290 289 288 287 288 285 287 286 286 286 284 284 284 285 285 284 284
279 278 278 279 278 278 278 280 280 281 281 282 283 284 283 283 283 284 285 286 287 287 288 288 289 290 290 290 289 288 288 287 288 287 287 286 284 285 285 285 285 284 284 282
280 280 280 281 280 280 280 280 280 281 282 282 282 280 281 282 283 284 286 283 281 284 286 288 286 286 288 288 287 287 287 287 286 285 286 284 284 284 284 282 283 284 283 283
279 280 280 280 281 281 280 281 281 281 282 282 279 278 279 279 281 282 282 282 285 285 288 289 288 288 288 287 283 284 284 284 283 283 283 283 282 282 283 281 283 283 282 283
278 279 279 279 279 281 281 281 280 280 281 282 280 279 279 280 280 280 280 281 283 286 287 285 286 284 285 284 284 283 283 283 283 282 282 282 281 282 282 284 284 285 285 283
279 278 278 278 278 278 280 281 281 282 281 281 280 279 278 280 280 281 281 282 283 282 285 285 285 284 284 281 283 282 282 282 282 282 281 281 282 283 284 284 284 285 285 286
278 278 279 278 278 278 280 280 280 281 280 280 279 280 280 281 282 279 279 282 284 283 284 283 282 282 281 281 281 281 282 282 283 283 284 284 284 284 284 284 284 285 285 286
278 278 278 279 279 279 277 279 280 281 281 281 281 281 282 281 281 283 283 281 281 281 283 283 283 281 281 283 283 283 283 284 284 284 284 283 285 285 285 285 284 285 286 286
278 278 278 278 277 277 279 279 280 280 280 280 281 283 283 284 282 282 283 282 281 281 283 282 281 280 282 283 282 283 283 284 284 284 285 285 285 285 285 286 286 287 287 287
277 277 278 278 278 278 279 280 279 280 279 278 279 280 281 283 283 283 283 283 283 282 283 284 283 283 283 283 283 283 283 284 284 283 284 284 285 286 286 286 286 287 287 287
277 277 277 277 279 279 279 279 278 279 280 280 280 281 281 282 282 281 281 282 282 281 280 280 281 280 282 283 283 284 284 284 284 285 285 285 285 286 286 286 287 287 287 287
Wind_Speed
11 17 17 16 16 13 8 11 6 15 9 12 14 5 11 14 15 16 15 14 13 10 8 7 10 8 8 8 8 6 6 9 7 8 10 11 10 7 9 13 10 10 9 8
14 12 8 11 16 13 9 12 10 13 4 8 13 9 11 13 14 15 16 15 15 13 12 11 9 9 10 8 9 8 7 7 6 8 7 8 8 8 9 9 9 9 8 9
13 12 15 7 2 7 8 8 8 7 7 7 14 13 12 13 15 15 16 14 14 12 12 10 9 7 8 10 9 10 9 8 7 6 6 6 7 8 7 8 9 9 9 8
9 9 3 7 9 5 3 4 5 11 9 12 8 11 14 14 16 15 15 13 11 8 10 12 10 13 13 10 9 10 10 9 7 6 5 5 6 7 8 8 9 9 8 7
3 7 12 15 4 4 2 1 5 6 8 9 11 8 14 14 13 12 11 8 7 6 6 9 11 12 13 12 9 9 9 8 6 5 5 5 5 6 5 7 7 7 8 8
3 3 3 4 7 3 2 4 8 5 3 4 9 3 5 10 11 9 8 6 6 7 7 8 9 9 12 10 10 9 5 8 9 8 6 5 5 5 3 5 6 5 6 5
7 3 4 16 23 8 3 5 5 8 6 5 3 3 7 6 8 8 4 5 7 7 6 6 7 7 8 7 7 7 8 5 6 7 7 7 5 3 4 4 5 5 5 5
5 5 8 22 14 9 9 10 3 6 9 10 7 4 11 13 11 9 12 9 5 5 5 5 6 7 7 7 6 8 8 10 7 6 5 5 6 3 3 3 4 5 5 4
4 6 12 9 13 9 8 12 18 6 9 11 12 5 3 3 6 1 3 11 11 7 5 5 5 6 5 1 5 6 8 8 7 6 6 5 5 5 2 2 2 3 3 5
7 1 13 8 12 10 13 11 14 8 11 11 2 7 8 9 6 5 7 7 6 9 6 6 6 6 2 3 4 4 4 5 6 6 5 4 3 3 3 3 2 3 3 3
13 11 8 7 11 10 9 12 9 11 9 9 12 15 8 2 1 2 2 4 2 2 1 4 6 6 6 5 4 3 2 2 3 4 5 4 2 4 4 4 6 5 4 4
8 5 7 8 11 13 7 11 13 13 13 10 5 12 16 8 5 2 3 4 4 4 3 3 2 5 6 7 5 4 3 2 2 1 2 3 3 0 3 3 8 7 5 5
8 8 11 12 9 9 7 11 12 11 5 10 6 7 12 9 4 3 4 4 5 6 5 5 4 2 5 6 6 4 2 3 2 0 2 2 2 3 3 4 6 5 7 8
10 11 7 5 6 7 6 10 13 11 7 8 5 8 9 10 7 6 6 7 7 6 8 6 7 6 6 5 5 4 3 2 2 3 3 3 4 5 4 4 3 3 5 6
6 9 12 7 8 8 9 8 11 11 9 8 7 7 9 9 9 6 5 6 8 7 7 6 6 7 7 6 5 5 4 3 2 1 1 1 2 1 3 4 4 3 1 1
2 4 4 9 5 5 6 9 5 8 8 6 8 9 8 10 12 8 7 6 6 6 7 7 7 7 7 7 6 4 4 6 4 3 3 3 3 3 3 4 4 4 3 4
6 6 5 7 7 6 7 8 8 6 6 11 7 6 7 11 12 10 7 6 6 7 7 7 6 6 6 6 6 4 4 4 6 4 4 4 4 4 4 4 5 5 5 4
7 7 7 7 7 8 8 7 7 9 10 9 8 7 6 6 6 11 7 6 6 6 6 6 7 7 7 7 7 5 5 5 5 5 5 5 5 5 5 5 5 4 5 4
13 14 14 15 13 12 12 13 11 10 10 11 10 9 8 7 8 9 10 7 5 5 6 7 7 5 5 5 5 3 4 4 4 4 4 5 3 4 4 4 4 5 5 5
14 14 16 18 18 16 15 14 14 14 14 12 9 8 12 10 8 9 10 11 10 7 7 7 5 2 3 4 4 3 4 5 6 6 5 5 5 6 6 7 7 6 6 6
16 19 22 20 19 19 18 18 18 19 19 18 15 14 11 14 11 10 6 6 8 8 6 7 6 5 5 6 5 5 5 5 5 5 5 5 6 6 6 8 9 9 9 6
16 18 19 19 19 19 17 16 17 18 17 16 14 12 8 10 13 11 10 8 5 8 5 5 6 9 7 9 5 6 6 6 6 5 5 6 7 9 9 9 9 10 10 10
18 18 18 17 16 18 17 15 15 16 15 15 14 13 12 9 9 7 7 8 7 9 8 7 9 11 11 7 5 6 6 8 9 8 9 9 9 9 9 9 9 9 9 9
18 17 17 16 16 15 16 15 14 14 13 14 15 14 12 9 8 8 9 9 12 12 10 9 10 13 13 7 7 8 9 9 10 9 10 11 10 10 9 9 9 9 9 10
17 16 16 15 14 11 14 14 13 11 10 10 11 10 9 8 7 7 9 9 12 12 11 13 14 13 9 9 9 9 9 9 10 9 10 10 11 11 11 10 11 11 11 11
16 12 12 14 11 10 10 9 8 8 8 7 7 5 5 5 6 5 6 10 12 12 11 10 9 10 10 10 10 11 10 11 11 10 12 12 12 12 12 12 11 11 11 11
13 15 11 11 9 9 9 9 10 9 8 8 9 7 6 5 5 5 6 5 5 4 4 5 5 6 7 7 9 10 10 10 12 11 12 11 11 12 12 12 12 12 11 12
Wind_Direction
323 306 289 284 307 316 326 314 313 306 331 346 335 76 94 91 83 80 74 69 65 55 44 95 116 105 99 82 72 74 75 104 133 127 141 142 139 135 146 150 158 165 157 167
299 296 321 314 295 289 272 293 308 330 40 354 321 88 83 81 79 77 72 62 52 39 37 40 59 124 113 109 103 85 85 81 70 84 99 118 125 145 155 146 159 154 160 176
291 317 315 309 311 18 15 58 304 14 358 39 354 48 66 73 70 67 66 62 52 34 17 12 48 82 123 119 116 109 100 83 75 78 97 113 132 145 142 143 147 157 160 156
277 304 337 239 356 139 69 97 332 333 23 346 356 41 58 60 66 56 53 53 54 37 17 7 24 58 71 101 103 103 103 107 107 100 103 106 124 135 146 152 156 155 161 170
223 265 279 306 3 13 56 125 155 282 343 18 345 354 52 58 62 63 54 39 41 54 27 12 16 44 52 53 68 96 115 114 101 101 112 117 118 127 125 146 144 160 157 165
193 238 275 316 41 62 317 267 343 210 246 8 346 140 53 56 55 54 49 34 37 54 33 23 12 51 48 35 31 21 52 133 136 135 130 127 131 129 130 136 150 146 162 168
274 247 267 5 354 34 312 336 24 47 73 124 99 305 321 22 49 27 19 30 21 67 63 26 20 46 61 44 24 9 11 60 122 132 127 124 119 101 121 127 135 150 160 166
337 224 239 1 345 357 314 313 122 90 101 84 69 58 350 349 12 48 343 354 34 45 75 25 26 58 60 48 24 14 15 37 48 100 102 98 102 91 102 130 144 149 156 161
167 283 311 348 12 38 2 2 354 326 167 136 138 142 182 245 299 312 137 339 353 18 37 22 17 60 59 68 63 43 25 22 39 64 106 117 119 129 123 162 158 182 176 181
334 311 315 336 9 20 359 351 328 338 326 348 316 172 190 186 208 273 320 162 229 312 1 9 7 15 26 25 41 91 73 27 49 69 91 126 132 135 140 170 203 208 195 196
295 298 332 1 343 346 339 324 325 318 306 334 340 335 273 201 312 315 315 316 310 214 326 342 350 355 351 4 354 52 62 57 53 104 107 87 147 180 176 211 191 189 208 187
285 315 275 304 308 306 312 306 306 306 313 311 191 285 310 245 195 214 307 316 292 293 279 245 336 353 349 342 7 27 25 35 31 151 153 149 156 115 330 210 206 208 194 184
280 259 252 260 266 294 275 285 283 289 299 303 317 301 304 291 269 213 283 280 292 273 262 247 206 238 297 307 318 313 315 290 284 37 267 215 188 185 200 312 346 264 216 213
4 359 320 299 287 290 294 298 280 279 258 280 261 284 284 284 263 234 223 249 263 274 262 239 222 211 218 255 277 269 254 244 220 258 249 227 204 205 210 185 192 251 268 225
328 346 305 305 9 4 359 347 350 348 331 296 251 257 276 292 282 254 256 262 253 248 263 241 221 219 212 214 240 256 233 210 215 262 276 274 310 287 181 160 187 217 243 316
328 325 335 296 326 342 335 326 332 320 326 315 324 310 282 265 270 273 262 250 256 264 253 235 228 225 211 201 212 220 225 222 215 224 254 260 240 203 184 195 209 229 218 224
333 320 310 310 309 298 290 287 275 259 294 294 283 289 331 321 292 287 249 240 259 263 246 234 234 232 207 203 195 202 209 220 215 212 209 215 213 231 234 225 223 223 228 218
322 308 298 284 296 298 287 272 281 300 301 294 277 254 264 290 295 298 257 249 253 258 270 261 224 215 220 215 206 204 205 211 210 205 211 213 217 221 222 223 228 219 236 238
330 321 314 306 299 284 280 281 277 268 262 275 286 282 239 225 246 262 274 275 218 228 260 267 252 258 244 247 199 173 188 205 207 201 199 213 223 234 239 229 233 231 227 231
297 295 297 294 290 285 283 281 276 276 277 271 261 271 265 243 228 235 242 244 242 220 221 229 259 240 238 227 237 215 216 216 218 223 221 221 220 227 227 227 235 234 230 228
309 309 302 295 290 284 280 279 276 271 267 262 255 256 248 247 227 223 208 225 240 237 232 235 234 240 232 220 223 211 208 220 221 214 216 221 226 229 225 228 235 240 243 229
304 297 293 291 291 288 282 275 275 272 262 261 260 246 231 249 248 231 221 212 219 208 213 218 225 232 231 223 223 219 217 215 216 219 227 227 233 242 243 240 237 239 240 240
304 300 296 290 289 289 286 280 276 267 262 256 250 250 245 244 228 206 223 225 218 220 220 221 218 218 224 219 214 218 219 225 230 229 233 236 238 241 242 238 233 231 232 235
306 300 296 298 294 290 288 287 280 273 258 254 250 247 238 238 236 227 225 217 215 216 225 224 222 221 224 226 227 231 231 234 237 238 241 243 246 246 243 241 241 240 236 234
310 310 306 306 305 299 295 292 290 284 283 277 261 251 242 244 234 237 232 227 217 218 227 228 219 215 215 210 209 215 218 221 228 228 233 237 242 246 246 243 242 245 244 243
311 306 303 298 296 300 300 296 287 281 279 274 269 259 251 246 259 269 269 245 222 222 231 233 227 231 231 230 229 231 232 231 232 233 236 241 245 246 246 245 247 247 245 245
310 308 310 305 304 303 297 295 295 293 284 277 275 273 270 266 257 253 251 241 240 230 214 210 203 207 213 219 226 230 231 233 232 234 234 237 238 242 245 245 243 240 241 241